When you browse on this site, cookies collect data to enhance your experience and personalize the content and advertising you see.
Visit our Privacy Policy to learn more. By continuing to use the site, you agree to this use of cookies and data.
  • In Czech Republic
  • List of Countries
  • For 7 days
  • Water Temperature
  • Satellite Maps
  • Weather Map
  • Weather Widgets
  • user-avatar
    Login

    Hourly Weather Cárdenas

    Today, 18 January, Friday

    Time Temperature Precipitation Wind Pressure Humidity
    00:00 +21°C° 0 mm 2 mps 761 mmHg 94%
    01:00 +21°C° 0 mm 2 mps 761 mmHg 94%
    02:00 +21°C° 0 mm 1 mps 761 mmHg 94%
    03:00 +21°C° 0 mm 1 mps 761 mmHg 94%
    04:00 +21°C° 0 mm 1 mps 761 mmHg 95%
    05:00 +21°C° 0 mm 1 mps 761 mmHg 95%
    06:00 +21°C° 0 mm 1 mps 761 mmHg 96%
    07:00 +22°C° 0 mm 1 mps 761 mmHg 94%
    08:00 +22°C° 0 mm 1 mps 761 mmHg 92%
    09:00 +23°C° 0 mm 1 mps 761 mmHg 91%
    10:00 +24°C° 0 mm 1 mps 761 mmHg 86%
    11:00 +25°C° 0 mm 2 mps 761 mmHg 81%
    12:00 +27°C° 0 mm 2 mps 760 mmHg 76%
    13:00 +27°C° 0 mm 2 mps 760 mmHg 74%
    14:00 +28°C° 0 mm 2 mps 759 mmHg 72%
    15:00 +28°C° 0 mm 2 mps 758 mmHg 70%
    16:00 +27°C° 0 mm 2 mps 758 mmHg 74%
    17:00 +26°C° 0 mm 1 mps 758 mmHg 79%
    18:00 +25°C° 0 mm 1 mps 758 mmHg 83%
    19:00 +24°C° 0 mm 1 mps 758 mmHg 85%
    20:00 +23°C° 0 mm 1 mps 758 mmHg 88%
    21:00 +23°C° 0 mm 1 mps 759 mmHg 90%
    22:00 +22°C° 0 mm 1 mps 759 mmHg 91%
    23:00 +22°C° 0 mm 1 mps 759 mmHg 92%

    Tomorrow, 19 January, Saturday

    Time Temperature Precipitation Wind Pressure Humidity
    00:00 +22°C° 0 mm 1 mps 759 mmHg 93%
    01:00 +21°C° 0 mm 1 mps 758 mmHg 94%
    02:00 +21°C° 0 mm 1 mps 758 mmHg 94%
    03:00 +21°C° 0 mm 1 mps 757 mmHg 95%
    04:00 +21°C° 0 mm 1 mps 757 mmHg 96%
    05:00 +21°C° 0 mm 1 mps 757 mmHg 96%
    06:00 +21°C° 0 mm 1 mps 757 mmHg 96%
    07:00 +22°C° 0 mm 1 mps 758 mmHg 94%
    08:00 +23°C° 0 mm 1 mps 758 mmHg 91%
    09:00 +22°C° 0 mm 0 mps 759 mmHg 89%
    10:00 +25°C° 0 mm 1 mps 758 mmHg 85%
    11:00 +27°C° 0 mm 1 mps 758 mmHg 81%
    12:00 +28°C° 0 mm 1 mps 758 mmHg 76%
    13:00 +28°C° 0 mm 1 mps 758 mmHg 75%
    14:00 +29°C° 0 mm 2 mps 757 mmHg 74%
    15:00 +29°C° 0 mm 2 mps 757 mmHg 73%
    16:00 +28°C° 0 mm 3 mps 757 mmHg 78%
    17:00 +26°C° 0 mm 3 mps 758 mmHg 84%
    18:00 +25°C° 0 mm 4 mps 759 mmHg 89%
    19:00 +24°C° 0.1 mm 3 mps 760 mmHg 90%
    20:00 +24°C° 0.1 mm 3 mps 761 mmHg 92%
    21:00 +24°C° 0.1 mm 2 mps 762 mmHg 93%
    22:00 +22°C° 0.9 mm 3 mps 762 mmHg 93%
    23:00 +22°C° 0.9 mm 4 mps 763 mmHg 93%

    Day after tomorrow, 20 January, Sunday

    Time Temperature Precipitation Wind Pressure Humidity
    00:00 +22°C° 0.9 mm 4 mps 763 mmHg 93%
    01:00 +22°C° 0.8 mm 5 mps 763 mmHg 91%
    02:00 +22°C° 0.8 mm 6 mps 763 mmHg 88%
    03:00 +21°C° 0.8 mm 7 mps 763 mmHg 86%
    04:00 +21°C° 0 mm 6 mps 764 mmHg 85%
    05:00 +21°C° 0 mm 6 mps 764 mmHg 83%
    06:00 +20°C° 0 mm 5 mps 765 mmHg 81%
    07:00 +20°C° 0.1 mm 5 mps 766 mmHg 82%
    08:00 +20°C° 0.1 mm 4 mps 767 mmHg 82%
    09:00 +20°C° 0.1 mm 4 mps 768 mmHg 83%
    10:00 +21°C° 0.2 mm 4 mps 768 mmHg 80%
    11:00 +22°C° 0.2 mm 5 mps 768 mmHg 78%
    12:00 +22°C° 0.2 mm 5 mps 768 mmHg 75%
    13:00 +22°C° 0.2 mm 5 mps 767 mmHg 74%
    14:00 +22°C° 0.2 mm 6 mps 767 mmHg 73%
    15:00 +22°C° 0.2 mm 6 mps 766 mmHg 72%
    16:00 +21°C° 0.1 mm 5 mps 766 mmHg 75%
    17:00 +20°C° 0.1 mm 4 mps 766 mmHg 78%
    18:00 +19°C° 0.1 mm 3 mps 766 mmHg 81%
    19:00 +19°C° 0 mm 3 mps 767 mmHg 80%
    20:00 +18°C° 0 mm 2 mps 767 mmHg 80%
    21:00 +18°C° 0 mm 2 mps 767 mmHg 80%
    22:00 +18°C° 0 mm 2 mps 767 mmHg 78%
    23:00 +19°C° 0 mm 1 mps 767 mmHg 76%

    21 January, Monday

    Time Temperature Precipitation Wind Pressure Humidity
    00:00 +20°C° 0 mm 1 mps 766 mmHg 75%
    01:00 +20°C° 0 mm 1 mps 766 mmHg 74%
    02:00 +20°C° 0 mm 1 mps 765 mmHg 74%
    03:00 +20°C° 0 mm 1 mps 765 mmHg 74%
    04:00 +20°C° 0 mm 1 mps 765 mmHg 75%
    05:00 +19°C° 0 mm 1 mps 765 mmHg 76%
    06:00 +19°C° 0 mm 1 mps 765 mmHg 77%
    07:00 +18°C° 0 mm 2 mps 765 mmHg 78%
    08:00 +19°C° 0 mm 2 mps 766 mmHg 78%
    09:00 +19°C° 0 mm 2 mps 766 mmHg 79%
    10:00 +20°C° 0 mm 2 mps 766 mmHg 74%
    11:00 +21°C° 0 mm 3 mps 765 mmHg 70%
    12:00 +24°C° 0 mm 3 mps 765 mmHg 65%
    13:00 +24°C° 0 mm 3 mps 764 mmHg 65%
    14:00 +24°C° 0 mm 3 mps 763 mmHg 65%
    15:00 +24°C° 0 mm 3 mps 762 mmHg 66%
    16:00 +22°C° 0 mm 3 mps 762 mmHg 70%
    17:00 +21°C° 0 mm 2 mps 762 mmHg 74%
    18:00 +20°C° 0 mm 2 mps 761 mmHg 79%
    19:00 +20°C° 0 mm 2 mps 762 mmHg 80%
    20:00 +19°C° 0 mm 2 mps 762 mmHg 81%
    21:00 +18°C° 0 mm 2 mps 763 mmHg 82%
    22:00 +18°C° 0 mm 2 mps 762 mmHg 85%
    23:00 +17°C° 0 mm 2 mps 762 mmHg 87%

    22 January, Tuesday

    Time Temperature Precipitation Wind Pressure Humidity
    00:00 +17°C° 0 mm 2 mps 761 mmHg 89%
    01:00 +16°C° 0 mm 2 mps 761 mmHg 90%
    02:00 +16°C° 0 mm 1 mps 760 mmHg 91%
    03:00 +15°C° 0 mm 1 mps 760 mmHg 92%
    04:00 +15°C° 0 mm 1 mps 760 mmHg 93%
    05:00 +15°C° 0 mm 1 mps 759 mmHg 94%
    06:00 +14°C° 0 mm 1 mps 759 mmHg 95%
    07:00 +16°C° 0 mm 1 mps 760 mmHg 92%
    08:00 +18°C° 0 mm 1 mps 760 mmHg 89%
    09:00 +19°C° 0 mm 1 mps 760 mmHg 86%
    10:00 +20°C° 0 mm 1 mps 760 mmHg 82%
    11:00 +22°C° 0 mm 1 mps 759 mmHg 78%
    12:00 +24°C° 0 mm 1 mps 759 mmHg 74%
    13:00 +25°C° 0 mm 2 mps 758 mmHg 73%
    14:00 +26°C° 0 mm 2 mps 757 mmHg 72%
    15:00 +26°C° 0 mm 2 mps 756 mmHg 71%
    16:00 +25°C° 0 mm 2 mps 756 mmHg 77%
    17:00 +25°C° 0 mm 2 mps 756 mmHg 82%
    18:00 +24°C° 0 mm 2 mps 756 mmHg 88%
    19:00 +23°C° 0 mm 2 mps 757 mmHg 89%
    20:00 +21°C° 0 mm 2 mps 757 mmHg 91%
    21:00 +21°C° 0 mm 2 mps 758 mmHg 92%
    22:00 +21°C° 0 mm 2 mps 758 mmHg 93%
    23:00 +20°C° 0 mm 2 mps 757 mmHg 93%

    23 January, Wednesday

    Time Temperature Precipitation Wind Pressure Humidity
    00:00 +21°C° 0 mm 1 mps 757 mmHg 93%
    01:00 +21°C° 0 mm 1 mps 757 mmHg 94%
    02:00 +21°C° 0 mm 1 mps 757 mmHg 94%
    03:00 +20°C° 0 mm 1 mps 756 mmHg 94%
    04:00 +20°C° 0 mm 1 mps 756 mmHg 93%
    05:00 +20°C° 0 mm 1 mps 756 mmHg 93%
    06:00 +18°C° 0 mm 2 mps 756 mmHg 92%
    07:00 +20°C° 0 mm 2 mps 757 mmHg 88%
    08:00 +21°C° 0 mm 2 mps 757 mmHg 85%
    09:00 +24°C° 0 mm 2 mps 758 mmHg 81%
    10:00 +25°C° 0 mm 2 mps 757 mmHg 76%
    11:00 +27°C° 0 mm 2 mps 757 mmHg 71%
    12:00 +29°C° 0 mm 1 mps 757 mmHg 66%
    13:00 +30°C° 0 mm 2 mps 756 mmHg 66%
    14:00 +30°C° 0 mm 2 mps 756 mmHg 66%
    15:00 +31°C° 0 mm 3 mps 755 mmHg 67%
    16:00 +29°C° 0 mm 3 mps 756 mmHg 74%
    17:00 +27°C° 0 mm 3 mps 756 mmHg 81%
    18:00 +25°C° 0 mm 3 mps 757 mmHg 88%
    19:00 +24°C° 0 mm 3 mps 757 mmHg 90%
    20:00 +24°C° 0 mm 3 mps 758 mmHg 92%
    21:00 +22°C° 0 mm 3 mps 759 mmHg 95%
    22:00 +22°C° 0 mm 3 mps 759 mmHg 94%
    23:00 +22°C° 0 mm 3 mps 759 mmHg 93%
    Show more